Weather History for Pompano Beach, FL

Change the Weather History Date:

Wednesday, May 28, 2014

  Actual Average Record
Temperature  
Mean Temperature 83 °F -  
Max Temperature 88 °F 88 °F 94 °F (1967)
Min Temperature 78 °F 71 °F 62 °F (1951)
Cooling Degree Days 18    
Growing Degree Days 33 (Base 50)    
Moisture  
Dew Point 72 °F    
Average Humidity 72    
Maximum Humidity 82    
Minimum Humidity 59    
Precipitation  
Precipitation 0.00 in - - ()
Sea Level Pressure  
Sea Level Pressure 30.05 in    
Wind  
Wind Speed 8 mph (ESE)    
Max Wind Speed 16 mph    
Max Gust Speed -    
Visibility 10 miles    
Events Rain , Thunderstorm    
Averages and records for this station are not official NWS values.
T = Trace of Precipitation, MM = Missing Value Source: NWS Daily Summary

Daily Weather History Graph

Daily Weather History Graph

Search for Another Location

Airport:

Trip Planner

Search our weather history database for the weather conditions in past years. The results will help you decide how hot, cold, wet, or windy it might be!

Date:

Astronomy

May. 28, 2014 Rise Set
Actual Time 6:28 AM EDT 8:06 PM EDT
Civil Twilight 6:03 AM EDT 8:32 PM EDT
Nautical Twilight 5:32 AM EDT 9:03 PM EDT
Astronomical Twilight 5:00 AM EDT 9:35 PM EDT
Moon 6:27 AM EDT 8:09 PM EDT
Length of Visible Light 14h 29m
Length of Day
13h 37m
Waning Crescent, 0% of the Moon is Illuminated
May 28
Waning Crescent
May 28
New
Jun 5
First Quarter
Jun 13
Full
Jun 19
Last Quarter

Hourly Weather History & Observations

Time (EDT) Temp. Heat Index Dew Point Humidity Pressure Visibility Wind Dir Wind Speed Gust Speed Precip Events Conditions
12:53 AM 80.1 °F 82.9 °F 69.1 °F 69% 30.08 in 10.0 mi ESE 4.6 mph - N/A   Clear
1:53 AM 79.0 °F - 71.1 °F 77% 30.06 in 10.0 mi East 5.8 mph - N/A   Partly Cloudy
2:53 AM 79.0 °F - 71.1 °F 77% 30.05 in 10.0 mi East 4.6 mph - N/A   Clear
3:53 AM 78.1 °F - 72.0 °F 81% 30.04 in 10.0 mi East 6.9 mph - N/A   Clear
4:53 AM 79.0 °F - 73.0 °F 82% 30.04 in 10.0 mi East 8.1 mph - N/A   Scattered Clouds
5:11 AM 79.0 °F - 73.0 °F 82% 30.04 in 10.0 mi East 8.1 mph - N/A   Mostly Cloudy
5:23 AM 79.0 °F - 73.0 °F 82% 30.04 in 10.0 mi East 6.9 mph - N/A   Scattered Clouds
5:53 AM 79.0 °F - 73.0 °F 82% 30.04 in 10.0 mi East 6.9 mph - N/A   Partly Cloudy
6:53 AM 79.0 °F - 70.0 °F 74% 30.05 in 8.0 mi SE 6.9 mph - 0.00 in Rain Light Rain
7:53 AM 81.0 °F 84.9 °F 71.1 °F 72% 30.06 in 10.0 mi SE 10.4 mph - 0.00 in   Scattered Clouds
8:43 AM 82.0 °F 85.9 °F 70.0 °F 67% 30.07 in 10.0 mi ESE 8.1 mph - N/A Thunderstorm Scattered Clouds
9:05 AM 84.0 °F 89.0 °F 71.1 °F 65% 30.08 in 10.0 mi SE 10.4 mph - N/A   Scattered Clouds
9:53 AM 82.9 °F 87.5 °F 71.1 °F 67% 30.09 in 10.0 mi ESE 8.1 mph - N/A   Scattered Clouds
10:53 AM 84.9 °F 90.7 °F 72.0 °F 65% 30.09 in 10.0 mi ESE 13.8 mph - N/A   Clear
11:53 AM 86.0 °F 92.2 °F 72.0 °F 63% 30.09 in 10.0 mi ESE 13.8 mph - N/A   Clear
12:53 PM 84.9 °F 91.4 °F 73.0 °F 67% 30.08 in 10.0 mi ESE 13.8 mph - N/A   Clear
2:53 PM 88.0 °F 94.7 °F 72.0 °F 59% 30.04 in 10.0 mi ESE 16.1 mph - N/A   Clear
3:53 PM 86.0 °F 92.2 °F 72.0 °F 63% 30.04 in 10.0 mi ESE 15.0 mph - N/A   Mostly Cloudy
4:53 PM 84.9 °F 91.4 °F 73.0 °F 67% 30.02 in 10.0 mi SE 13.8 mph - N/A   Scattered Clouds
7:53 PM 82.0 °F 86.7 °F 72.0 °F 71% 30.03 in 10.0 mi SE 10.4 mph - N/A   Mostly Cloudy
8:53 PM 82.0 °F 86.7 °F 72.0 °F 71% 30.04 in 10.0 mi SE 9.2 mph - N/A   Clear
9:53 PM 81.0 °F 85.8 °F 73.0 °F 77% 30.04 in 10.0 mi SE 9.2 mph - 0.00 in   Scattered Clouds
10:53 PM 81.0 °F 85.2 °F 72.0 °F 74% 30.05 in 10.0 mi SE 9.2 mph - N/A   Partly Cloudy
11:53 PM 81.0 °F 85.8 °F 73.0 °F 77% 30.04 in 10.0 mi SE 8.1 mph - N/A   Clear